TimePST,TemperatureF,Dew PointF,Humidity,Sea Level PressureIn,VisibilityMPH,Wind Direction,Wind SpeedMPH,Gust SpeedMPH,PrecipitationIn,Events,Conditions,WindDirDegrees,DateUTC
12:55 AM,44.1,39.9,85,30.03,10.0,Calm,Calm,-,N/A,,Overcast,0,2012-11-27 08:55:00
1:55 AM,44.1,39.9,85,30.02,10.0,East,3.5,-,N/A,,Overcast,100,2012-11-27 09:55:00
2:06 AM,44.6,39.2,81,30.03,10.0,East,3.5,-,N/A,,Overcast,100,2012-11-27 10:06:00
2:43 AM,44.6,41.0,87,30.03,10.0,Calm,Calm,-,N/A,,Overcast,0,2012-11-27 10:43:00
2:55 AM,45.0,39.9,82,30.03,10.0,East,4.6,-,N/A,,Overcast,80,2012-11-27 10:55:00
3:55 AM,46.4,41.0,81,30.01,10.0,East,5.8,-,N/A,,Overcast,80,2012-11-27 11:55:00
4:55 AM,45.0,39.0,80,30.00,10.0,East,6.9,-,N/A,,Overcast,90,2012-11-27 12:55:00
5:55 AM,45.0,39.0,80,30.01,10.0,ENE,6.9,-,N/A,,Overcast,70,2012-11-27 13:55:00
6:55 AM,45.0,39.0,80,30.01,10.0,East,6.9,-,N/A,,Overcast,80,2012-11-27 14:55:00
7:55 AM,45.0,37.9,76,30.01,10.0,East,4.6,-,N/A,,Overcast,100,2012-11-27 15:55:00
8:55 AM,45.0,37.9,76,30.02,10.0,East,5.8,-,N/A,,Overcast,100,2012-11-27 16:55:00
9:55 AM,48.0,39.0,71,30.01,10.0,East,8.1,-,N/A,,Mostly Cloudy,80,2012-11-27 17:55:00
10:55 AM,50.0,39.0,66,30.00,10.0,ENE,8.1,-,N/A,,Clear,60,2012-11-27 18:55:00
11:55 AM,48.2,39.2,71,29.98,10.0,NE,8.1,-,N/A,,Clear,40,2012-11-27 19:55:00
12:55 PM,52.0,39.9,63,29.96,10.0,NE,4.6,-,N/A,,Clear,50,2012-11-27 20:55:00
1:55 PM,51.1,41.0,68,29.94,10.0,East,4.6,-,N/A,,Clear,80,2012-11-27 21:55:00
2:55 PM,51.1,39.9,66,29.93,10.0,East,5.8,-,N/A,,Clear,100,2012-11-27 22:55:00
3:55 PM,50.0,39.9,68,29.94,10.0,Calm,Calm,-,N/A,,Partly Cloudy,0,2012-11-27 23:55:00
4:55 PM,46.9,41.0,80,29.92,10.0,SE,3.5,-,N/A,,Partly Cloudy,130,2012-11-28 00:55:00
5:55 PM,45.0,39.9,82,29.91,10.0,Calm,Calm,-,N/A,,Partly Cloudy,0,2012-11-28 01:55:00
6:55 PM,45.0,39.9,82,29.91,10.0,East,5.8,-,N/A,,Clear,100,2012-11-28 02:55:00
7:55 PM,45.0,39.0,80,29.90,10.0,East,6.9,-,N/A,,Partly Cloudy,90,2012-11-28 03:55:00
8:55 PM,44.1,39.0,82,29.88,10.0,ESE,8.1,-,N/A,,Clear,110,2012-11-28 04:55:00
9:55 PM,44.1,39.0,82,29.87,10.0,East,5.8,-,N/A,,Clear,80,2012-11-28 05:55:00
10:55 PM,42.1,37.9,85,29.87,10.0,East,3.5,-,N/A,,Clear,80,2012-11-28 06:55:00
11:55 PM,43.0,37.9,82,29.85,10.0,East,5.8,-,N/A,,Clear,90,2012-11-28 07:55:00